[[{"header":{"parameterUnit":"m.s-1","parameterCategory":2,"la1":30.2992,"la2":30.254,"lo1":-89.0895,"lo2":-89.0443,"dy":0.0025,"dx":0.0025,"nx":19,"ny":19,"refTime":"2026-04-30T09:00:00:Z","depth":"0","parameterNumber":2,"parameterNumberName":"U-component_of_CURRENTS"},"data":[0,0,0,-0.1649,-0.165,-0.1697,-0.1697,-0.1712,-0.1712,0,0,0,0,0,0,0,0,0,0,0,-0.1643,-0.1643,-0.1649,-0.165,-0.1697,-0.1697,-0.1712,-0.1712,0,0,0,0,0,0,0,0,0,0,0,-0.1643,-0.1643,-0.1643,-0.165,-0.1697,-0.1697,-0.1712,-0.1692,0,0,0,0,0,0,0,0,0,0,-0.1654,-0.1633,-0.1643,-0.1643,-0.165,-0.1697,-0.1697,-0.1692,-0.1693,-0.1672,0,-0.1676,0,-0.168,-0.171,-0.171,0,0,0,-0.1668,-0.1632,-0.1654,-0.1643,-0.165,-0.1697,-0.1681,-0.1693,-0.1695,-0.1673,-0.1677,-0.1677,-0.168,-0.171,-0.171,-0.1718,-0.1718,0,0,-0.1665,-0.1642,-0.1653,-0.1655,-0.1657,-0.1679,-0.1682,-0.1695,-0.1687,-0.1677,-0.1678,-0.168,-0.171,-0.171,-0.1718,-0.1718,0,0,0,-0.1645,-0.164,-0.1664,-0.1654,-0.1658,-0.168,-0.1683,-0.1687,-0.1697,-0.1678,-0.1681,-0.171,-0.1709,-0.1717,-0.1718,-0.1755,0,0,0,-0.1645,-0.1628,-0.1662,-0.1648,-0.1658,-0.1674,-0.1674,-0.1697,-0.1699,-0.1681,-0.171,-0.1709,-0.1717,-0.1718,-0.1753,-0.1797,0,0,0,-0.1642,-0.1626,-0.1634,-0.1647,-0.1659,-0.1675,-0.1687,-0.1699,-0.1699,-0.171,-0.1709,-0.1717,-0.1717,-0.1751,-0.1794,-0.1874,0,0,0,-0.1616,-0.1616,-0.1633,-0.1644,-0.1659,-0.1704,-0.1687,-0.1712,-0.1725,-0.171,-0.1717,-0.1718,-0.1751,-0.1792,-0.1871,-0.1963,-0.1984,0,0,-0.1603,-0.1613,-0.1627,-0.1644,-0.1691,-0.1699,-0.1741,-0.1745,-0.1727,-0.1711,-0.1712,-0.1753,-0.1794,-0.1874,-0.2001,-0.2022,0,0,0,-0.1616,-0.1625,-0.1644,-0.1677,-0.1714,-0.1763,-0.1762,-0.1762,-0.1766,-0.1733,-0.1757,-0.1782,-0.1831,-0.1879,-0.1896,-0.1833,-0.1721,-0.1721,-0.1721,-0.1548,-0.1607,-0.1639,-0.171,-0.1751,-0.1801,-0.1838,-0.1837,-0.1792,-0.1799,-0.1813,-0.1903,-0.1953,-0.1967,-0.19,-0.1799,-0.1799,-0.1799,-0.1799,-0.1528,-0.1554,-0.1645,-0.1694,-0.1777,-0.1819,-0.1891,-0.1885,-0.1924,-0.1858,-0.1904,-0.1917,-0.1987,-0.1909,-0.1802,-0.1801,-0.1801,-0.1801,-0.1801,-0.1468,-0.1496,-0.1534,-0.1632,-0.1734,-0.1826,-0.1955,-0.1971,-0.1977,-0.2017,-0.2087,-0.2087,-0.2023,-0.2036,-0.2036,-0.2037,-0.2037,-0.2038,-0.2038,-0.1383,-0.1436,-0.1471,-0.1578,-0.1667,-0.1803,-0.1979,-0.2075,-0.2172,-0.2167,-0.2167,-0.2055,-0.1977,-0.1972,-0.2046,-0.2045,-0.2044,-0.2043,-0.2043,-0.1324,-0.1335,-0.1393,-0.1466,-0.1682,-0.1807,-0.202,-0.2264,-0.2366,-0.2432,-0.2279,-0.2258,-0.2271,-0.2258,-0.226,-0.2406,-0.2406,-0.2406,-0.2406,-0.1267,-0.1282,-0.1352,-0.1471,-0.1659,-0.1822,-0.204,-0.2226,-0.2364,-0.2372,-0.239,-0.232,-0.2309,-0.2317,-0.2302,-0.2302,-0.2455,-0.2455,-0.2455,-0.1232,-0.1263,-0.1294,-0.1416,-0.1651,-0.1823,-0.1928,-0.2083,-0.2326,-0.2444,-0.2286,-0.2284,-0.2161,-0.2147,-0.2138,-0.2123,-0.2114,0,0]},{"header":{"parameterUnit":"m.s-1","parameterCategory":2,"la1":30.2992,"la2":30.254,"lo1":-89.0895,"lo2":-89.0443,"dy":0.0025,"dx":0.0025,"nx":19,"ny":19,"refTime":"2026-04-30T09:00:00:Z","depth":"0","parameterNumber":3,"parameterNumberName":"V-component_of_CURRENTS"},"data":[0,0,0,-0.0386,-0.0387,-0.0426,-0.0426,-0.0466,-0.0467,0,0,0,0,0,0,0,0,0,0,0,-0.0385,-0.0385,-0.0386,-0.0387,-0.0426,-0.0426,-0.0466,-0.0467,0,0,0,0,0,0,0,0,0,0,0,-0.0384,-0.0385,-0.0385,-0.0387,-0.0426,-0.0426,-0.0466,-0.0443,0,0,0,0,0,0,0,0,0,0,-0.0408,-0.0386,-0.0385,-0.0385,-0.0387,-0.0426,-0.0426,-0.0442,-0.0444,-0.0441,0,-0.0447,0,-0.0446,-0.0468,-0.0468,0,0,0,-0.0402,-0.0384,-0.0406,-0.0385,-0.0387,-0.0426,-0.0412,-0.0443,-0.0446,-0.0444,-0.0448,-0.0449,-0.0446,-0.0468,-0.0468,-0.0458,-0.0458,0,0,-0.0399,-0.0381,-0.0404,-0.0407,-0.0396,-0.0411,-0.0413,-0.0445,-0.044,-0.0448,-0.045,-0.0447,-0.0468,-0.0468,-0.0459,-0.0458,0,0,0,-0.0383,-0.0379,-0.0401,-0.0406,-0.0407,-0.0412,-0.0415,-0.0439,-0.045,-0.045,-0.0447,-0.0468,-0.0468,-0.0459,-0.0459,-0.0489,0,0,0,-0.0383,-0.0369,-0.04,-0.0388,-0.0406,-0.0419,-0.0408,-0.0448,-0.0451,-0.0447,-0.0468,-0.0468,-0.0459,-0.0459,-0.0489,-0.0523,0,0,0,-0.0383,-0.0368,-0.0376,-0.0387,-0.0397,-0.0419,-0.0432,-0.0449,-0.0448,-0.0468,-0.0468,-0.0459,-0.0459,-0.0489,-0.0522,-0.0542,0,0,0,-0.036,-0.037,-0.0375,-0.0397,-0.0397,-0.0434,-0.0432,-0.0454,-0.0471,-0.0468,-0.0459,-0.0459,-0.0489,-0.0521,-0.0541,-0.051,-0.0513,0,0,-0.0363,-0.037,-0.039,-0.0396,-0.044,-0.0429,-0.0456,-0.0474,-0.0458,-0.0451,-0.0451,-0.0489,-0.0522,-0.0542,-0.0479,-0.0483,0,0,0,-0.0386,-0.0399,-0.0414,-0.0443,-0.0467,-0.0488,-0.0486,-0.0476,-0.0473,-0.0462,-0.0469,-0.0489,-0.0501,-0.0479,-0.0481,-0.0281,-0.0456,-0.0456,-0.0456,-0.0364,-0.0406,-0.0442,-0.0489,-0.0511,-0.0521,-0.0528,-0.0509,-0.0487,-0.0477,-0.0498,-0.0516,-0.0491,-0.0493,-0.0285,-0.0469,-0.0469,-0.0469,-0.0469,-0.0383,-0.0424,-0.0466,-0.0514,-0.0551,-0.0571,-0.0569,-0.055,-0.0538,-0.0509,-0.0519,-0.0493,-0.0498,-0.0275,-0.0471,-0.047,-0.047,-0.047,-0.047,-0.0385,-0.0415,-0.0439,-0.0516,-0.0575,-0.0604,-0.0647,-0.0614,-0.0578,-0.0584,-0.0552,-0.0551,-0.0371,-0.0583,-0.0583,-0.0584,-0.0584,-0.0584,-0.0584,-0.0384,-0.0414,-0.0464,-0.0527,-0.0602,-0.0662,-0.0691,-0.069,-0.064,-0.0595,-0.0594,-0.0338,-0.0551,-0.0565,-0.0588,-0.0587,-0.0586,-0.0586,-0.0586,-0.0429,-0.042,-0.0508,-0.0576,-0.0729,-0.0827,-0.0816,-0.0783,-0.0743,-0.071,-0.0345,-0.0592,-0.0585,-0.0581,-0.0595,-0.0624,-0.0624,-0.0624,-0.0624,-0.0456,-0.0455,-0.0593,-0.0727,-0.0858,-0.093,-0.0992,-0.086,-0.053,-0.0314,-0.0246,-0.0168,-0.0175,-0.0139,-0.0145,-0.0147,-0.0062,-0.0061,-0.006,-0.05,-0.0539,-0.0659,-0.0781,-0.0955,-0.1049,-0.1095,-0.0875,-0.0292,-0.0016,0.0031,0.0007,0.0143,0.0115,0.0188,0.0163,0.0165,0,0]}],[{"header":{"parameterUnit":"m.s-1","parameterCategory":2,"la1":30.2992,"la2":30.254,"lo1":-89.0895,"lo2":-89.0443,"dy":0.0025,"dx":0.0025,"nx":19,"ny":19,"refTime":"2026-04-30T09:00:00:Z","depth":"2","parameterNumber":2,"parameterNumberName":"U-component_of_CURRENTS"},"data":[0,0,0,-0.1464,-0.1464,-0.1495,-0.1496,-0.1523,-0.1523,0,0,0,0,0,0,0,0,0,0,0,-0.1473,-0.1473,-0.1464,-0.1464,-0.1495,-0.1496,-0.1523,-0.1523,0,0,0,0,0,0,0,0,0,0,0,-0.1473,-0.1473,-0.1473,-0.1464,-0.1495,-0.1496,-0.1524,-0.1507,0,0,0,0,0,0,0,0,0,0,-0.148,-0.1468,-0.1473,-0.1473,-0.1464,-0.1495,-0.1496,-0.1507,-0.1508,-0.15,0,-0.1508,0,-0.1499,-0.1523,-0.1523,0,0,0,-0.1482,-0.1467,-0.1484,-0.1474,-0.1464,-0.1495,-0.1486,-0.1508,-0.1509,-0.1501,-0.1509,-0.1509,-0.1499,-0.1523,-0.1523,-0.1555,-0.1555,0,0,-0.1481,-0.1469,-0.1483,-0.1485,-0.1476,-0.1485,-0.1487,-0.1509,-0.1507,-0.1509,-0.1509,-0.1499,-0.1523,-0.1523,-0.1555,-0.1555,0,0,0,-0.1463,-0.1468,-0.1485,-0.1484,-0.1481,-0.1486,-0.1488,-0.1507,-0.1515,-0.151,-0.15,-0.1523,-0.1523,-0.1554,-0.1555,-0.1587,0,0,0,-0.1463,-0.1456,-0.1484,-0.1477,-0.1481,-0.149,-0.1484,-0.1514,-0.1515,-0.15,-0.1523,-0.1523,-0.1554,-0.1555,-0.1585,-0.1644,0,0,0,-0.1471,-0.1456,-0.1464,-0.1476,-0.148,-0.149,-0.15,-0.1515,-0.1508,-0.1523,-0.1523,-0.1554,-0.1554,-0.1584,-0.164,-0.1733,0,0,0,-0.1453,-0.1456,-0.1464,-0.1475,-0.148,-0.1519,-0.15,-0.1526,-0.1544,-0.1523,-0.1554,-0.1555,-0.1583,-0.1637,-0.173,-0.1775,-0.1795,0,0,-0.1446,-0.1455,-0.1467,-0.1474,-0.15,-0.1515,-0.1556,-0.1567,-0.1552,-0.1548,-0.1549,-0.1586,-0.164,-0.1733,-0.1825,-0.1844,0,0,0,-0.1458,-0.1466,-0.1478,-0.1496,-0.1527,-0.1575,-0.1581,-0.1584,-0.1594,-0.1561,-0.1595,-0.1629,-0.1686,-0.1705,-0.172,-0.1559,-0.1559,-0.1559,-0.1559,-0.1405,-0.1447,-0.1472,-0.1526,-0.1567,-0.1614,-0.1657,-0.1665,-0.1626,-0.1634,-0.1659,-0.1763,-0.1781,-0.1793,-0.164,-0.164,-0.1641,-0.1641,-0.1641,-0.1386,-0.1408,-0.1481,-0.1521,-0.1595,-0.1645,-0.172,-0.1716,-0.1776,-0.1704,-0.1757,-0.1743,-0.1812,-0.1643,-0.1643,-0.1643,-0.1642,-0.1642,-0.1642,-0.1336,-0.1361,-0.1395,-0.1476,-0.1573,-0.1666,-0.1799,-0.182,-0.1835,-0.1884,-0.1936,-0.1935,-0.1821,-0.1911,-0.1912,-0.1913,-0.1913,-0.1914,-0.1914,-0.1267,-0.1312,-0.1346,-0.144,-0.1524,-0.1658,-0.1837,-0.1936,-0.203,-0.2022,-0.2022,-0.1857,-0.1848,-0.184,-0.1924,-0.1923,-0.1921,-0.192,-0.192,-0.1215,-0.123,-0.128,-0.1349,-0.1545,-0.1655,-0.1863,-0.2092,-0.2214,-0.2269,-0.2109,-0.2101,-0.2116,-0.2103,-0.2102,-0.2251,-0.2251,-0.2251,-0.2251,-0.1168,-0.1183,-0.1248,-0.1355,-0.1524,-0.1666,-0.184,-0.195,-0.2091,-0.2067,-0.2073,-0.1964,-0.1957,-0.1956,-0.1946,-0.1937,-0.2043,-0.2042,-0.2041,-0.1136,-0.1166,-0.1195,-0.1305,-0.1514,-0.1657,-0.1686,-0.1672,-0.1807,-0.2019,-0.1886,-0.2266,-0.2121,-0.2104,-0.211,-0.209,-0.2081,0,0]},{"header":{"parameterUnit":"m.s-1","parameterCategory":2,"la1":30.2992,"la2":30.254,"lo1":-89.0895,"lo2":-89.0443,"dy":0.0025,"dx":0.0025,"nx":19,"ny":19,"refTime":"2026-04-30T09:00:00:Z","depth":"2","parameterNumber":3,"parameterNumberName":"V-component_of_CURRENTS"},"data":[0,0,0,-0.0239,-0.0239,-0.0247,-0.0247,-0.0284,-0.0284,0,0,0,0,0,0,0,0,0,0,0,-0.0253,-0.0253,-0.0239,-0.0239,-0.0246,-0.0247,-0.0284,-0.0284,0,0,0,0,0,0,0,0,0,0,0,-0.0253,-0.0253,-0.0253,-0.0239,-0.0246,-0.0247,-0.0284,-0.0274,0,0,0,0,0,0,0,0,0,0,-0.0264,-0.0251,-0.0253,-0.0253,-0.0239,-0.0246,-0.0247,-0.0273,-0.0274,-0.0285,0,-0.0293,0,-0.0279,-0.0287,-0.0287,0,0,0,-0.0249,-0.025,-0.0266,-0.0254,-0.0239,-0.0246,-0.0246,-0.0274,-0.0275,-0.0287,-0.0293,-0.0294,-0.0279,-0.0287,-0.0287,-0.0296,-0.0296,0,0,-0.0248,-0.0241,-0.0265,-0.0267,-0.0249,-0.0245,-0.0246,-0.0274,-0.0272,-0.0293,-0.0294,-0.028,-0.0287,-0.0287,-0.0296,-0.0296,0,0,0,-0.024,-0.024,-0.0254,-0.0266,-0.0259,-0.0245,-0.0246,-0.0271,-0.028,-0.0294,-0.028,-0.0287,-0.0288,-0.0296,-0.0296,-0.032,0,0,0,-0.0241,-0.0235,-0.0254,-0.0248,-0.0258,-0.0255,-0.0242,-0.0279,-0.028,-0.028,-0.0287,-0.0288,-0.0296,-0.0296,-0.032,-0.037,0,0,0,-0.0251,-0.0235,-0.0242,-0.0248,-0.0246,-0.0255,-0.0265,-0.0279,-0.0271,-0.0287,-0.0288,-0.0296,-0.0296,-0.032,-0.0368,-0.0398,0,0,0,-0.0235,-0.0246,-0.0242,-0.0261,-0.0246,-0.0269,-0.0264,-0.0281,-0.0297,-0.0287,-0.0296,-0.0296,-0.0319,-0.0367,-0.0397,-0.0332,-0.0334,0,0,-0.0242,-0.0246,-0.0263,-0.026,-0.028,-0.0268,-0.0286,-0.0304,-0.0291,-0.0291,-0.0291,-0.032,-0.0368,-0.0398,-0.0311,-0.0313,0,0,0,-0.0262,-0.0273,-0.028,-0.0293,-0.0304,-0.0315,-0.0314,-0.0305,-0.0302,-0.0295,-0.0305,-0.0336,-0.0354,-0.031,-0.0312,-0.0294,-0.0294,-0.0294,-0.0294,-0.0252,-0.0277,-0.0303,-0.0332,-0.0347,-0.0345,-0.0352,-0.0336,-0.032,-0.0311,-0.0343,-0.0371,-0.0322,-0.0323,-0.0307,-0.0307,-0.0307,-0.0307,-0.0307,-0.0273,-0.0308,-0.033,-0.0366,-0.0385,-0.0406,-0.0396,-0.0379,-0.0383,-0.035,-0.0365,-0.0322,-0.0326,-0.0309,-0.0309,-0.0308,-0.0308,-0.0308,-0.0308,-0.0284,-0.0309,-0.0328,-0.0384,-0.0431,-0.0453,-0.0492,-0.0461,-0.0431,-0.0444,-0.0401,-0.0399,-0.0418,-0.045,-0.0451,-0.0451,-0.0451,-0.0451,-0.0452,-0.0298,-0.0318,-0.0364,-0.0413,-0.0479,-0.0531,-0.0554,-0.0551,-0.0499,-0.0452,-0.045,-0.042,-0.0415,-0.0426,-0.0457,-0.0456,-0.0455,-0.0455,-0.0454,-0.0349,-0.0341,-0.0421,-0.0482,-0.0611,-0.0689,-0.067,-0.0617,-0.059,-0.0548,-0.044,-0.0439,-0.0436,-0.0433,-0.0443,-0.0477,-0.0477,-0.0477,-0.0477,-0.0383,-0.0381,-0.0511,-0.063,-0.074,-0.0787,-0.0809,-0.0646,-0.0495,-0.0384,-0.0389,-0.0318,-0.0318,-0.0306,-0.0305,-0.0312,-0.0312,-0.0311,-0.0311,-0.0429,-0.0465,-0.0581,-0.0688,-0.0834,-0.0895,-0.0881,-0.0632,-0.0334,-0.0306,-0.0374,-0.0463,-0.0366,-0.0365,-0.0349,-0.0346,-0.0358,0,0]}],[{"header":{"parameterUnit":"m.s-1","parameterCategory":2,"la1":30.2992,"la2":30.254,"lo1":-89.0895,"lo2":-89.0443,"dy":0.0025,"dx":0.0025,"nx":19,"ny":19,"refTime":"2026-04-30T09:00:00:Z","depth":"4","parameterNumber":2,"parameterNumberName":"U-component_of_CURRENTS"},"data":[0,0,0,-0.0635,-0.0636,-0.063,-0.063,-0.0481,-0.048,0,0,0,0,0,0,0,0,0,0,0,-0.0612,-0.0612,-0.0635,-0.0636,-0.063,-0.063,-0.0481,-0.048,0,0,0,0,0,0,0,0,0,0,0,-0.0611,-0.0612,-0.0612,-0.0636,-0.063,-0.063,-0.0482,-0.0512,0,0,0,0,0,0,0,0,0,0,-0.0532,-0.0558,-0.0612,-0.0612,-0.0637,-0.063,-0.063,-0.0515,-0.051,-0.0455,0,-0.0464,0,-0.0493,-0.047,-0.0469,0,0,0,-0.0599,-0.0562,-0.0558,-0.0612,-0.0637,-0.0631,-0.0622,-0.0513,-0.0508,-0.0448,-0.0463,-0.0459,-0.0491,-0.0469,-0.0468,-0.0361,-0.0361,0,0,-0.06,-0.0606,-0.0562,-0.0555,-0.0646,-0.0623,-0.0623,-0.0511,-0.0508,-0.0463,-0.0457,-0.0488,-0.0468,-0.0467,-0.0361,-0.0361,0,0,0,-0.0625,-0.0606,-0.0606,-0.0559,-0.0583,-0.0624,-0.0623,-0.0512,-0.0513,-0.0456,-0.0486,-0.0467,-0.0465,-0.0361,-0.0361,-0.0565,0,0,0,-0.0624,-0.0624,-0.0607,-0.061,-0.0587,-0.0573,-0.0627,-0.0519,-0.0509,-0.0487,-0.0467,-0.0464,-0.0361,-0.0361,-0.056,-0.0601,0,0,0,-0.061,-0.0624,-0.0626,-0.061,-0.0628,-0.0576,-0.0569,-0.0518,-0.0529,-0.0469,-0.0464,-0.0361,-0.0361,-0.0556,-0.0593,-0.0689,0,0,0,-0.0611,-0.0615,-0.0626,-0.0633,-0.0628,-0.0586,-0.057,-0.0534,-0.0485,-0.0466,-0.0361,-0.0361,-0.0554,-0.0588,-0.0683,-0.0488,0,0,0,-0.0613,-0.0615,-0.0617,-0.0628,-0.0603,-0.0584,-0.0551,-0.0495,-0.0462,-0.0381,-0.038,-0.0562,-0.0592,-0.0687,-0.0476,0,0,0,0,-0.0616,-0.0615,-0.0607,-0.0604,-0.0575,-0.0542,-0.0498,-0.053,-0.0549,-0.0443,-0.05,-0.051,-0.0566,-0.0432,-0.036,-0.036,-0.036,-0.036,-0.036,-0.0664,-0.0634,-0.0619,-0.0572,-0.0537,-0.0508,-0.0532,-0.055,-0.0535,-0.0608,-0.0635,-0.0776,-0.0638,-0.0606,-0.0607,-0.0608,-0.0608,-0.0609,-0.0609,-0.0692,-0.0673,-0.063,-0.0608,-0.0557,-0.0531,-0.0569,-0.0631,-0.0795,-0.0753,-0.0801,-0.06,-0.0628,-0.0624,-0.0622,-0.062,-0.0618,-0.0617,-0.0616,-0.0738,-0.0703,-0.0716,-0.0676,-0.0651,-0.0605,-0.0678,-0.0815,-0.0918,-0.102,-0.0878,-0.0888,-0.0922,-0.1087,-0.1088,-0.1088,-0.1089,-0.1089,-0.109,-0.077,-0.0757,-0.0782,-0.0744,-0.0735,-0.0762,-0.0834,-0.0918,-0.1045,-0.1031,-0.1092,-0.0935,-0.092,-0.0944,-0.11,-0.1098,-0.1096,-0.1096,-0.1095,-0.0741,-0.0801,-0.082,-0.0833,-0.0826,-0.0829,-0.0884,-0.0928,-0.1046,-0.1084,-0.1023,-0.1024,-0.0922,-0.0907,-0.0927,-0.1084,-0.1082,-0.108,0,-0.0747,-0.0768,-0.0835,-0.0865,-0.0863,-0.0857,-0.0833,-0.0886,-0.1006,-0.0983,-0.1126,-0.1059,-0.1057,-0.0939,-0.0922,-0.0942,0,0,0,-0.0723,-0.0757,-0.0796,-0.0862,-0.0853,-0.0839,-0.0829,-0.0814,-0.0965,-0.0946,-0.1033,-0.1045,-0.1017,-0.1129,-0.0974,-0.0955,-0.0984,0,0]},{"header":{"parameterUnit":"m.s-1","parameterCategory":2,"la1":30.2992,"la2":30.254,"lo1":-89.0895,"lo2":-89.0443,"dy":0.0025,"dx":0.0025,"nx":19,"ny":19,"refTime":"2026-04-30T09:00:00:Z","depth":"4","parameterNumber":3,"parameterNumberName":"V-component_of_CURRENTS"},"data":[0,0,0,0.0151,0.0152,0.0261,0.0262,0.063,0.0633,0,0,0,0,0,0,0,0,0,0,0,0.0132,0.0132,0.0151,0.0152,0.0261,0.0262,0.0629,0.0633,0,0,0,0,0,0,0,0,0,0,0,0.0132,0.0132,0.0133,0.0152,0.026,0.0262,0.0628,0.0499,0,0,0,0,0,0,0,0,0,0,0.0369,0.03,0.0132,0.0133,0.0153,0.026,0.0262,0.0491,0.0507,0.0633,0,0.0631,0,0.0622,0.0659,0.066,0,0,0,0.0193,0.0285,0.0309,0.0133,0.0153,0.026,0.0223,0.0499,0.0518,0.0656,0.0636,0.0648,0.0628,0.0662,0.0664,0.0894,0.0894,0,0,0.0187,0.0172,0.0295,0.032,0.0164,0.022,0.0226,0.0508,0.053,0.0637,0.0655,0.0634,0.0664,0.0667,0.0894,0.0894,0,0,0,0.0142,0.0167,0.0181,0.0307,0.0297,0.0222,0.0229,0.0517,0.0519,0.0659,0.0638,0.0666,0.0671,0.0895,0.0894,0.0752,0,0,0,0.0141,0.0138,0.0177,0.0172,0.0289,0.0375,0.0233,0.05,0.053,0.0636,0.0667,0.0675,0.0895,0.0895,0.0756,0.0767,0,0,0,0.013,0.0137,0.0141,0.017,0.0195,0.0368,0.0387,0.0506,0.0518,0.0661,0.0676,0.0896,0.0895,0.0761,0.0772,0.0773,0,0,0,0.0124,0.0125,0.0141,0.0147,0.0193,0.027,0.0385,0.0498,0.0614,0.0669,0.0895,0.0894,0.0762,0.0775,0.0776,0.0659,0,0,0,0.0119,0.0124,0.0127,0.0142,0.0198,0.0259,0.0333,0.054,0.064,0.0828,0.0833,0.0755,0.0772,0.0774,0.0605,0,0,0,0,0.0121,0.0125,0.0146,0.0177,0.0238,0.0322,0.0465,0.0499,0.0626,0.0692,0.0776,0.0794,0.0798,0.0738,0.089,0.089,0.089,0.089,0.089,0.0077,0.0114,0.0141,0.0207,0.027,0.0385,0.045,0.0534,0.0611,0.061,0.0689,0.062,0.0546,0.0667,0.0667,0.0666,0.0665,0.0665,0.0665,0.0042,0.0051,0.0128,0.016,0.0262,0.0328,0.0453,0.0486,0.0551,0.0574,0.0583,0.0605,0.0651,0.0654,0.0656,0.0657,0.0659,0.0659,0.066,-0.0018,0.0004,0.0016,0.0075,0.015,0.0264,0.0317,0.0402,0.0478,0.0494,0.0461,0.0573,0.0576,0.047,0.047,0.047,0.047,0.047,0.047,-0.0091,-0.0058,-0.0079,-0.0013,0.0003,0.0062,0.0219,0.0273,0.0373,0.0359,0.0464,0.0557,0.0564,0.0569,0.047,0.047,0.047,0.047,0.047,-0.0143,-0.0156,-0.0193,-0.02,-0.0164,-0.011,0.0041,0.0155,0.0205,0.0215,0.0304,0.0312,0.0384,0.0396,0.0398,0.0244,0.0243,0.0241,0,-0.0199,-0.0197,-0.0291,-0.0336,-0.0324,-0.0211,-0.0138,-0.004,0.009,0.0081,0.019,0.0286,0.0293,0.0372,0.038,0.038,0,0,0,-0.0235,-0.0264,-0.0356,-0.0408,-0.0398,-0.0261,-0.0119,-0.009,0.0068,0.0072,0.0195,0.0207,0.0304,0.0469,0.0603,0.061,0.0628,0,0]}]]